Location: *
(13.0000°N, 151.6000°E)
Time: 15:51:37
(UTC+00:00)

Hubble Space Telescope - Pass Details

Date: 01 April 2020
Orbit: 536 x 540 km, 28.5° (Epoch: 04 June)

Event Time Altitude Azimuth Distance (km) Brightness Sun altitude
Exits shadow 17:39:58 22° 73° (ENE) 1,193 3.1 -31.9°
Drops below altitude 10° 17:41:47 10° 90° (E) 1,782 4.2 -31.5°
Sets 17:44:11 0° 99° (E) 2,673 5.3 -30.9°
